Vorticity
nan nan nan nan nan nan nan nan nan nan nan nan nan nan nan nan nan nan nan nan nan nan nan nan nan nan nan nan nan nan nan nan nan nan nan nan nan nan nan nan nan nan nan nan nan
nan 7 7 7 7 7 7 7 7 7 7 8 8 8 9 13 11 5 18 22 14 1 -1 5 6 6 5 7 8 8 7 8 8 10 12 6 7 6 10 2 3 8 14 13 nan
nan 7 7 7 7 7 7 7 7 7 7 8 8 9 9 13 11 14 20 12 2 -1 2 8 7 5 6 8 9 6 3 6 11 14 12 5 2 11 8 3 11 11 8 4 nan
nan 7 7 7 7 7 7 8 7 7 8 8 8 8 18 15 4 16 15 8 -0 1 6 5 4 6 7 8 8 5 9 8 9 10 13 10 3 7 2 14 17 13 6 4 nan
nan 7 7 7 7 8 7 8 8 7 8 8 9 13 17 9 11 16 13 3 -2 8 6 4 4 4 7 9 7 4 9 10 10 11 10 6 5 10 6 12 13 10 7 4 nan
nan 7 7 7 8 7 8 8 7 8 8 8 9 17 14 5 18 13 7 1 2 7 9 3 5 4 6 10 6 8 8 5 7 8 8 8 7 6 13 11 9 6 6 6 nan
nan 8 7 7 8 7 8 7 8 8 10 11 13 15 10 13 12 9 4 3 6 4 5 4 6 7 6 9 10 10 5 6 8 9 7 6 7 7 11 10 7 6 6 6 nan
nan 7 7 8 8 8 8 8 10 13 15 14 14 12 4 14 8 4 5 7 11 7 2 9 12 6 8 8 6 5 7 9 9 6 6 7 7 12 12 6 4 7 8 8 nan
nan 8 8 8 8 9 9 13 18 19 14 11 9 10 12 8 7 8 6 7 8 8 8 11 11 7 8 8 5 8 9 4 8 8 6 6 11 12 8 8 6 4 8 9 nan
nan 8 7 7 8 9 19 26 17 13 14 9 5 6 12 5 8 10 9 10 7 10 11 9 5 6 6 7 7 7 7 9 10 8 8 4 10 13 8 6 6 5 6 7 nan
nan 7 6 6 9 13 23 20 14 10 12 10 3 2 5 10 11 9 12 8 5 6 8 7 8 11 7 5 8 10 10 7 9 11 10 8 7 11 8 4 6 7 7 6 nan
nan 8 7 8 12 23 17 9 10 5 8 11 6 6 9 11 7 9 12 7 8 5 3 10 10 10 12 9 9 11 9 7 9 10 9 12 7 13 11 8 7 6 7 8 nan
nan 9 10 9 23 19 9 7 3 10 11 10 14 8 13 11 5 9 6 7 8 7 9 5 3 7 11 12 13 11 12 12 9 7 6 6 10 12 11 11 8 7 7 9 nan
nan 9 7 23 25 8 10 4 9 9 5 14 9 11 12 7 11 13 6 8 8 10 9 3 8 8 8 13 10 8 14 11 8 7 9 5 10 8 16 11 6 7 7 8 nan
nan 9 15 26 11 7 7 6 14 10 5 16 10 11 14 9 7 10 9 11 13 9 7 7 6 5 10 14 10 8 11 10 6 7 8 5 14 10 12 12 14 14 7 6 nan
nan 11 19 17 10 5 3 14 12 11 9 11 13 9 8 7 7 10 10 9 13 8 5 11 7 10 8 7 8 11 4 6 12 8 6 12 7 9 12 7 8 17 16 9 nan
nan 16 19 10 6 8 12 12 11 5 7 11 10 9 8 11 8 9 9 8 8 6 7 14 11 11 11 6 7 8 5 7 6 12 10 9 7 9 4 13 15 12 13 13 nan
nan 29 21 3 5 10 14 12 9 6 6 6 10 14 10 5 7 10 9 4 5 9 13 8 8 13 9 12 8 6 9 8 11 7 12 10 4 9 9 16 21 14 12 11 nan
nan 24 10 15 10 8 13 10 10 5 5 8 13 12 8 9 11 10 9 9 9 6 6 3 7 9 10 11 10 8 10 9 5 9 12 6 5 8 12 14 16 12 11 9 nan
nan 11 10 15 12 9 9 9 7 3 6 12 12 11 11 8 10 10 8 7 13 9 7 7 13 8 10 8 9 15 7 5 10 14 6 9 11 10 8 8 7 8 8 7 nan
nan 10 13 9 8 12 12 11 9 8 8 6 9 10 13 12 8 6 4 7 12 11 11 9 8 7 9 12 6 4 5 11 15 9 10 9 10 14 11 10 8 7 7 7 nan
nan 8 11 11 9 9 13 9 7 8 8 11 11 10 10 11 10 12 11 8 14 11 7 5 5 12 6 7 11 11 10 8 8 8 7 11 8 15 16 9 8 9 5 5 nan
nan 9 8 13 9 9 10 10 9 9 5 8 10 10 8 5 13 15 9 12 12 7 7 9 4 6 11 16 15 11 8 7 8 15 13 4 8 11 13 9 9 9 8 9 nan
nan 9 11 9 10 7 12 12 10 10 10 10 9 6 6 11 9 6 9 16 14 8 8 9 10 13 9 5 6 10 10 7 6 9 14 4 10 11 11 6 6 9 12 11 nan
nan 12 10 5 7 9 12 11 11 10 14 5 11 12 5 5 11 12 6 9 12 12 14 7 7 7 7 12 9 9 10 8 5 9 7 15 12 14 14 12 10 5 8 10 nan
nan 8 12 11 10 13 11 10 6 10 11 6 9 12 11 7 0 2 12 10 7 9 7 9 18 10 7 14 11 8 11 7 6 7 10 16 6 14 13 14 16 14 8 5 nan
nan nan nan nan nan nan nan nan nan nan nan nan nan nan nan nan nan nan nan nan nan nan nan nan nan nan nan nan nan nan nan nan nan nan nan nan nan nan nan nan nan nan nan nan nan
CAPE
3 3 2 2 2 1 1 1 1 1 0 0 0 0 0 0 0 0 0 0 179 2245 1487 525 23 149 339 159 101 905 36 7 72 77 224 189 156 126 40 141 87 81 44 6 209
3 5 2 4 2 2 1 1 1 0 0 0 0 0 0 0 0 0 0 178 1908 1713 670 191 247 398 598 168 202 364 15 75 101 129 269 177 120 116 77 85 31 202 46 160 429
0 1 0 2 3 2 1 1 0 0 0 0 0 0 0 0 0 0 1479 2055 1755 1351 789 624 516 389 704 286 381 405 1 99 135 173 238 200 190 109 61 43 34 203 183 306 431
1 0 1 2 3 2 1 0 0 0 0 0 0 0 0 0 0 0 2258 1783 1717 601 767 219 352 913 1255 1246 644 242 145 131 417 416 414 289 193 88 57 26 22 254 239 291 418
1 0 0 1 2 1 1 0 0 0 0 0 0 0 0 0 0 1616 2483 2046 1293 551 640 651 696 1140 1177 1089 576 161 191 130 180 437 427 389 302 130 84 20 344 367 304 334 391
0 1 0 1 1 1 0 1 0 0 0 0 0 0 0 0 21 1950 1400 1038 1067 524 372 492 936 943 601 317 76 88 124 74 116 251 321 342 292 267 186 13 513 500 378 408 366
1 0 3 2 3 1 0 0 0 0 0 0 0 0 0 0 158 701 980 626 462 504 64 277 132 120 27 0 23 9 62 35 46 181 280 321 387 372 121 0 215 524 445 455 345
1 0 0 0 2 3 2 2 0 0 0 0 0 0 0 0 6 45 2 0 5 82 0 0 18 28 0 0 59 62 12 37 59 249 112 319 278 346 110 36 0 0 168 346 171
0 1 0 0 0 0 0 2 0 0 0 0 0 0 0 0 0 0 0 0 0 0 0 2 10 20 0 4 26 4 66 80 96 110 189 322 364 314 97 57 60 7 0 28 171
1 2 1 1 0 0 1 0 0 0 0 0 0 0 0 0 0 0 0 0 0 0 0 0 0 0 0 0 0 33 90 83 38 52 199 196 279 281 136 75 70 30 30 0 5
0 0 1 1 0 0 0 0 0 0 0 0 0 0 0 0 0 0 0 0 0 0 0 0 0 0 0 0 0 0 10 117 54 36 126 221 205 305 149 103 93 37 14 33 0
3 3 1 0 1 1 0 0 0 0 0 0 0 0 0 0 0 0 0 0 0 0 0 0 0 0 0 0 0 0 0 9 101 13 59 76 221 218 211 142 109 60 16 23 8
0 0 0 1 0 0 0 0 0 0 0 0 0 0 0 0 0 0 0 0 0 0 0 0 0 0 0 0 0 0 0 0 17 33 20 80 126 359 252 183 142 74 48 18 9
0 0 1 0 0 0 0 0 0 0 0 0 0 0 0 0 0 0 0 0 0 0 0 0 0 0 0 0 0 0 0 0 13 50 11 15 68 5 266 191 121 111 30 32 31
0 0 0 0 0 0 0 0 0 0 0 0 0 0 0 0 0 0 0 0 0 0 0 0 0 0 0 0 0 0 0 0 0 0 0 0 0 0 15 384 226 98 18 11 55
1 0 0 0 0 0 0 0 0 0 0 0 0 0 0 0 0 0 0 0 0 0 0 0 0 0 0 0 0 0 0 0 0 0 0 0 0 0 4 220 360 254 133 33 43
0 0 1 0 0 0 0 0 0 0 0 0 0 0 0 0 0 0 0 0 0 0 0 0 0 0 0 0 0 0 0 0 0 0 0 0 0 0 0 0 66 182 255 58 60
0 0 0 0 0 0 0 0 0 0 0 0 0 0 0 0 0 0 0 0 0 0 0 0 0 0 0 0 0 0 0 0 0 0 0 0 0 0 3 0 9 245 329 111 80
0 0 0 0 0 0 0 0 0 0 0 0 0 0 0 0 0 0 0 0 0 0 0 0 0 0 0 0 0 0 0 0 0 0 0 0 45 97 4 0 0 168 413 429 276
0 0 0 0 0 0 0 0 0 0 0 0 0 0 0 0 0 0 0 0 0 0 0 0 0 0 0 0 0 0 0 0 0 0 0 0 0 249 25 56 0 22 262 359 272
0 0 0 0 0 0 0 0 0 0 0 0 0 0 0 0 0 0 0 0 0 0 0 0 0 0 0 0 0 0 0 0 0 0 0 10 248 0 29 1 9 0 0 252 558
0 0 0 0 0 0 0 0 0 0 0 0 0 0 0 0 0 0 0 0 0 0 0 0 0 0 0 0 0 0 0 0 0 0 0 1 0 0 111 3 0 70 653 999 1043
0 0 0 0 0 0 0 0 0 0 0 0 0 0 0 0 0 0 0 0 0 0 0 0 0 0 0 0 0 0 0 0 0 0 0 0 0 0 260 623 758 866 1112 1222 965
0 0 0 0 0 0 0 0 0 0 0 0 0 0 0 0 0 0 0 0 0 0 0 0 0 0 0 0 0 0 0 0 0 0 0 0 0 0 498 799 812 1146 1234 1150 992
0 0 0 0 0 0 0 0 0 0 0 0 0 0 0 0 0 0 0 0 0 0 0 0 0 0 0 0 0 0 0 0 0 0 0 0 0 0 584 677 924 1091 1223 1294 1109
0 0 0 0 0 0 0 0 0 0 0 0 0 0 0 0 0 0 0 0 0 0 0 0 0 0 0 0 0 0 0 0 0 0 0 0 0 0 336 303 652 943 1342 1500 1199
0 0 0 0 5 27 1 0 0 0 0 0 0 0 0 0 0 0 0 0 0 0 0 0 0 0 0 0 0 0 0 0 0 0 0 0 0 0 50 401 724 831 1459 1627 1395